VSV712 LTFM-LRIA

Flight info

Callsign VSV712
Flight time 1h 9m
Altitude 38000
Route IBLAX1D/35L IBLAX P727 BGS L622 KOMAN/N0451F370 DCT GUXVA/N0284F090 T74 ABOLO DCT LRIA/14
Aircraft B738/M-SDE2E3FGHIRWXY/LB1

Departure

Time 2026-05-06 22:33
Airport İstanbul Airport (LTFM)

Arrival

Time 2026-05-06 23:42
Airport Iaşi International Airport (LRIA)
Time Latitude Longitude Altitude Speed Heading
2026-05-06 21:51 41.26017 28.73553 312 ft 0 kts 106°
2026-05-06 22:23 41.26020 28.73541 313 ft 2 kts 107°
2026-05-06 22:23 41.26024 28.73524 314 ft 2 kts 106°
2026-05-06 22:23 41.26027 28.73508 314 ft 2 kts 106°
2026-05-06 22:24 41.26031 28.73491 314 ft 2 kts 102°
2026-05-06 22:24 41.26033 28.73469 312 ft 2 kts 77°
2026-05-06 22:24 41.26028 28.73457 313 ft 0 kts 13°
2026-05-06 22:28 41.26032 28.73458 312 ft 2 kts 14°
2026-05-06 22:28 41.26044 28.73463 311 ft 5 kts 15°
2026-05-06 22:29 41.26089 28.73481 312 ft 8 kts 17°
2026-05-06 22:29 41.26152 28.73507 312 ft 11 kts 18°
2026-05-06 22:29 41.26215 28.73480 312 ft 10 kts 298°
2026-05-06 22:29 41.26220 28.73388 313 ft 10 kts 269°
2026-05-06 22:30 41.26219 28.73295 313 ft 10 kts 268°
2026-05-06 22:30 41.26218 28.73200 312 ft 10 kts 269°
2026-05-06 22:30 41.26217 28.73102 312 ft 11 kts 270°
2026-05-06 22:30 41.26216 28.73005 314 ft 10 kts 268°
2026-05-06 22:31 41.26215 28.72911 317 ft 10 kts 269°
2026-05-06 22:31 41.26213 28.72821 322 ft 10 kts 269°
2026-05-06 22:31 41.26212 28.72720 322 ft 13 kts 270°
2026-05-06 22:31 41.26211 28.72584 321 ft 17 kts 269°
2026-05-06 22:32 41.26227 28.72526 321 ft 5 kts 332°
2026-05-06 22:32 41.26296 28.72522 322 ft 33 kts 358°
2026-05-06 22:32 41.26798 28.72512 322 ft 110 kts 359°
2026-05-06 22:32 41.27793 28.72505 347 ft 171 kts
2026-05-06 22:33 41.29019 28.72520 1030 ft 175 kts
2026-05-06 22:33 41.30257 28.72502 1723 ft 187 kts 359°
2026-05-06 22:33 41.31652 28.72496 1962 ft 212 kts 359°
2026-05-06 22:33 41.33199 28.72501 2276 ft 229 kts 360°
2026-05-06 22:34 41.34812 28.72513 2862 ft 233 kts 359°
2026-05-06 22:34 41.36429 28.72529 3615 ft 231 kts 359°
2026-05-06 22:34 41.38033 28.72466 4303 ft 230 kts 348°
2026-05-06 22:34 41.39531 28.71753 4870 ft 239 kts 335°
2026-05-06 22:35 41.41079 28.70769 5391 ft 251 kts 334°
2026-05-06 22:35 41.42657 28.69748 6170 ft 253 kts 335°
2026-05-06 22:35 41.44241 28.68723 6959 ft 254 kts 335°
2026-05-06 22:35 41.45846 28.67688 7661 ft 258 kts 335°
2026-05-06 22:36 41.47480 28.66637 8375 ft 262 kts 335°
2026-05-06 22:36 41.49145 28.65568 8937 ft 273 kts 335°
2026-05-06 22:36 41.50932 28.64424 9175 ft 295 kts 335°
2026-05-06 22:36 41.52817 28.63217 9734 ft 303 kts 335°
2026-05-06 22:37 41.54731 28.61990 10429 ft 306 kts 335°
2026-05-06 22:37 41.56658 28.60748 11123 ft 309 kts 334°
2026-05-06 22:37 41.58381 28.59063 11763 ft 316 kts 316°
2026-05-06 22:37 41.59867 28.56873 12458 ft 320 kts 314°
2026-05-06 22:38 41.61359 28.54632 13121 ft 324 kts 314°
2026-05-06 22:38 41.62873 28.52381 13787 ft 327 kts 315°
2026-05-06 22:38 41.64413 28.50112 14391 ft 331 kts 315°
2026-05-06 22:38 41.65971 28.47825 14983 ft 334 kts 315°
2026-05-06 22:39 41.67719 28.45750 15320 ft 342 kts 332°
2026-05-06 22:39 41.69926 28.44400 15467 ft 357 kts 339°
2026-05-06 22:39 41.72285 28.43114 15642 ft 372 kts 339°
2026-05-06 22:39 41.74684 28.41812 16067 ft 378 kts 339°
2026-05-06 22:40 41.77121 28.40477 16656 ft 380 kts 339°
2026-05-06 22:40 41.79576 28.39118 17194 ft 383 kts 338°
2026-05-06 22:40 41.82048 28.37738 17700 ft 387 kts 338°
2026-05-06 22:40 41.84545 28.36338 18217 ft 390 kts 338°
2026-05-06 22:41 41.89594 28.33497 19148 ft 396 kts 338°
2026-05-06 22:41 41.92147 28.32058 19599 ft 399 kts 338°
2026-05-06 22:41 41.94684 28.30629 20027 ft 402 kts 338°
2026-05-06 22:42 41.97223 28.29027 20440 ft 406 kts 328°
2026-05-06 22:42 41.99380 28.26562 20852 ft 411 kts 311°
2026-05-06 22:42 42.01069 28.23435 21315 ft 413 kts 306°
2026-05-06 22:42 42.02670 28.20209 21732 ft 416 kts 305°
2026-05-06 22:43 42.04272 28.16937 22125 ft 419 kts 305°
2026-05-06 22:43 42.05888 28.13650 22522 ft 422 kts 305°
2026-05-06 22:43 42.07501 28.10396 22933 ft 424 kts 305°
2026-05-06 22:43 42.09153 28.07089 23309 ft 427 kts 305°
2026-05-06 22:44 42.10820 28.03766 23699 ft 429 kts 305°
2026-05-06 22:44 42.12500 28.00421 24010 ft 431 kts 305°
2026-05-06 22:44 42.14183 27.97065 24350 ft 432 kts 305°
2026-05-06 22:44 42.15870 27.93695 24693 ft 434 kts 305°
2026-05-06 22:45 42.17560 27.90320 25029 ft 435 kts 305°
2026-05-06 22:45 42.19257 27.86924 25344 ft 437 kts 305°
2026-05-06 22:45 42.21021 27.83584 25648 ft 437 kts 311°
2026-05-06 22:45 42.23134 27.80634 25917 ft 438 kts 319°
2026-05-06 22:46 42.25535 27.78099 26202 ft 439 kts 328°
2026-05-06 22:46 42.28157 27.76076 26502 ft 439 kts 332°
2026-05-06 22:46 42.30870 27.74135 26790 ft 441 kts 332°
2026-05-06 22:46 42.33602 27.72193 27056 ft 443 kts 332°
2026-05-06 22:47 42.36336 27.70235 27306 ft 445 kts 332°
2026-05-06 22:47 42.39072 27.68255 27555 ft 447 kts 332°
2026-05-06 22:47 42.41819 27.66249 27820 ft 449 kts 332°
2026-05-06 22:47 42.44540 27.64251 28056 ft 451 kts 332°
2026-05-06 22:48 42.47298 27.62221 28323 ft 452 kts 332°
2026-05-06 22:48 42.50057 27.60187 28686 ft 450 kts 332°
2026-05-06 22:48 42.52802 27.58164 29086 ft 449 kts 332°
2026-05-06 22:48 42.55518 27.56161 29414 ft 449 kts 332°
2026-05-06 22:49 42.58264 27.54127 29717 ft 449 kts 330°
2026-05-06 22:49 42.60901 27.51861 30054 ft 448 kts 325°
2026-05-06 22:49 42.63432 27.49405 30390 ft 447 kts 324°
2026-05-06 22:49 42.65926 27.46901 30699 ft 445 kts 324°
2026-05-06 22:50 42.68407 27.44396 31018 ft 443 kts 324°
2026-05-06 22:50 42.70883 27.41907 31317 ft 442 kts 324°
2026-05-06 22:50 42.73357 27.39439 31614 ft 441 kts 324°
2026-05-06 22:50 42.75835 27.36981 31882 ft 440 kts 324°
2026-05-06 22:51 42.78306 27.34539 32173 ft 439 kts 324°
2026-05-06 22:51 42.80779 27.32097 32479 ft 437 kts 324°
2026-05-06 22:51 42.83240 27.29667 32745 ft 437 kts 324°
2026-05-06 22:51 42.85695 27.27239 32978 ft 436 kts 324°
2026-05-06 22:52 42.88150 27.24809 33261 ft 435 kts 324°
2026-05-06 22:52 42.90599 27.22382 33560 ft 433 kts 324°
2026-05-06 22:52 42.93029 27.19970 33819 ft 433 kts 324°
2026-05-06 22:52 42.95465 27.17550 34033 ft 433 kts 324°
2026-05-06 22:53 42.97894 27.15134 34261 ft 432 kts 324°
2026-05-06 22:53 43.00318 27.12721 34475 ft 431 kts 324°
2026-05-06 22:53 43.02740 27.10307 34639 ft 431 kts 324°
2026-05-06 22:53 43.05168 27.07885 34780 ft 432 kts 324°
2026-05-06 22:54 43.07581 27.05477 34977 ft 431 kts 324°
2026-05-06 22:54 43.10002 27.03057 35173 ft 430 kts 324°
2026-05-06 22:54 43.12452 27.00735 35309 ft 430 kts 327°
2026-05-06 22:54 43.14982 26.98465 35454 ft 431 kts 327°
2026-05-06 22:55 43.17528 26.96182 35639 ft 430 kts 327°
2026-05-06 22:55 43.19995 26.93940 35813 ft 430 kts 327°
2026-05-06 22:55 43.22480 26.91675 35948 ft 430 kts 327°
2026-05-06 22:55 43.25011 26.89372 36086 ft 430 kts 327°
2026-05-06 22:56 43.27477 26.87129 36239 ft 430 kts 327°
2026-05-06 22:56 43.29997 26.84835 36376 ft 430 kts 327°
2026-05-06 22:56 43.32514 26.82541 36510 ft 431 kts 327°
2026-05-06 22:56 43.35013 26.80260 36633 ft 431 kts 327°
2026-05-06 22:57 43.37526 26.77965 36554 ft 436 kts 327°
2026-05-06 22:57 43.40053 26.75653 36398 ft 438 kts 327°
2026-05-06 22:57 43.42585 26.73335 36239 ft 435 kts 327°
2026-05-06 22:57 43.45095 26.71033 36113 ft 431 kts 327°
2026-05-06 22:58 43.47579 26.68753 36069 ft 430 kts 327°
2026-05-06 22:58 43.52551 26.64184 36064 ft 428 kts 327°
2026-05-06 22:59 43.57518 26.59610 36061 ft 430 kts 327°
2026-05-06 22:59 43.62506 26.55008 36060 ft 432 kts 327°
2026-05-06 23:00 43.67506 26.50385 36051 ft 433 kts 327°
2026-05-06 23:00 43.72520 26.45739 36048 ft 434 kts 327°
2026-05-06 23:01 43.77541 26.41077 36043 ft 434 kts 327°
2026-05-06 23:01 43.82548 26.36418 36041 ft 433 kts 327°
2026-05-06 23:02 43.87538 26.31765 36039 ft 432 kts 327°
2026-05-06 23:02 43.92520 26.27112 36038 ft 431 kts 327°
2026-05-06 23:03 43.97786 26.23309 36045 ft 428 kts 346°
2026-05-06 23:03 44.00731 26.22700 36028 ft 428 kts 358°
2026-05-06 23:03 44.03687 26.23034 36073 ft 428 kts 10°
2026-05-06 23:04 44.09480 26.24778 36045 ft 429 kts 11°
2026-05-06 23:04 44.15359 26.26611 36038 ft 430 kts 11°
2026-05-06 23:05 44.20238 26.28095 36040 ft 430 kts 11°
2026-05-06 23:05 44.26094 26.29844 36044 ft 431 kts 10°
2026-05-06 23:06 44.32027 26.31604 36048 ft 432 kts 10°
2026-05-06 23:06 44.37903 26.33348 36043 ft 433 kts 11°
2026-05-06 23:07 44.43861 26.35122 36050 ft 434 kts 11°
2026-05-06 23:07 44.49786 26.36889 36049 ft 435 kts 11°
2026-05-06 23:08 44.55638 26.38639 36051 ft 435 kts 11°
2026-05-06 23:08 44.61614 26.40430 36062 ft 436 kts 11°
2026-05-06 23:09 44.67548 26.42212 36063 ft 436 kts 11°
2026-05-06 23:09 44.73492 26.44000 36059 ft 435 kts 11°
2026-05-06 23:10 44.79439 26.45794 36061 ft 435 kts 11°
2026-05-06 23:10 44.85322 26.47571 36063 ft 434 kts 11°
2026-05-06 23:11 44.91264 26.49370 36068 ft 434 kts 11°
2026-05-06 23:11 44.97167 26.51162 36069 ft 433 kts 11°
2026-05-06 23:12 45.03051 26.52951 36073 ft 433 kts 11°
2026-05-06 23:12 45.08976 26.54756 36072 ft 432 kts 11°
2026-05-06 23:13 45.14819 26.56540 36085 ft 432 kts 11°
2026-05-06 23:13 45.20746 26.58354 36074 ft 432 kts 11°
2026-05-06 23:14 45.26630 26.60158 36086 ft 432 kts 11°
2026-05-06 23:14 45.32514 26.61966 36077 ft 432 kts 11°
2026-05-06 23:15 45.38397 26.63778 36091 ft 432 kts 11°
2026-05-06 23:15 45.44276 26.65592 36080 ft 433 kts 11°
2026-05-06 23:15 45.47236 26.66507 35861 ft 438 kts 11°
2026-05-06 23:16 45.50212 26.67427 35611 ft 438 kts 11°
2026-05-06 23:16 45.53212 26.68356 34968 ft 439 kts 11°
2026-05-06 23:16 45.56196 26.69282 34248 ft 441 kts 11°
2026-05-06 23:16 45.59213 26.70218 33436 ft 443 kts 11°
2026-05-06 23:17 45.62218 26.71153 32774 ft 440 kts 11°
2026-05-06 23:17 45.65225 26.72088 31944 ft 443 kts 11°
2026-05-06 23:17 45.68233 26.73025 31340 ft 441 kts 11°
2026-05-06 23:17 45.71223 26.73958 30768 ft 438 kts 11°
2026-05-06 23:18 45.74176 26.74880 30265 ft 435 kts 11°
2026-05-06 23:18 45.77126 26.75802 29672 ft 431 kts 11°
2026-05-06 23:18 45.80047 26.76716 29114 ft 427 kts 11°
2026-05-06 23:18 45.82931 26.77620 28591 ft 422 kts 11°
2026-05-06 23:19 45.85792 26.78518 27936 ft 418 kts 10°
2026-05-06 23:19 45.88624 26.79407 27516 ft 412 kts 10°
2026-05-06 23:19 45.91398 26.80278 26999 ft 409 kts 10°
2026-05-06 23:19 45.94161 26.81147 26495 ft 407 kts 11°
2026-05-06 23:20 45.96943 26.82022 25984 ft 405 kts 11°
2026-05-06 23:20 45.99670 26.82881 25486 ft 403 kts 11°
2026-05-06 23:20 46.02390 26.83739 24981 ft 401 kts 11°
2026-05-06 23:20 46.05127 26.84602 24476 ft 400 kts 11°
2026-05-06 23:21 46.07857 26.85465 23957 ft 400 kts 11°
2026-05-06 23:21 46.10609 26.86335 23391 ft 399 kts 12°
2026-05-06 23:21 46.13279 26.87181 22839 ft 398 kts 12°
2026-05-06 23:21 46.16008 26.88047 22308 ft 395 kts 12°
2026-05-06 23:22 46.18686 26.88897 21799 ft 393 kts 12°
2026-05-06 23:22 46.21395 26.89758 21287 ft 391 kts 12°
2026-05-06 23:22 46.24030 26.90596 20793 ft 388 kts 12°
2026-05-06 23:22 46.26667 26.91435 20304 ft 386 kts 11°
2026-05-06 23:23 46.29299 26.92274 19812 ft 385 kts 12°
2026-05-06 23:23 46.31907 26.93105 19320 ft 383 kts 12°
2026-05-06 23:23 46.34511 26.93936 18828 ft 382 kts 12°
2026-05-06 23:23 46.37112 26.94767 18310 ft 382 kts 12°
2026-05-06 23:24 46.39703 26.95596 17766 ft 381 kts 12°
2026-05-06 23:24 46.42284 26.96422 17258 ft 379 kts 12°
2026-05-06 23:24 46.44855 26.97246 16764 ft 377 kts 12°
2026-05-06 23:24 46.47410 26.98066 16279 ft 375 kts 12°
2026-05-06 23:25 46.49925 26.98874 15801 ft 373 kts 12°
2026-05-06 23:25 46.52453 26.99686 15326 ft 371 kts 12°
2026-05-06 23:25 46.54970 27.00496 14838 ft 370 kts 12°
2026-05-06 23:25 46.57489 27.01307 14358 ft 369 kts 12°
2026-05-06 23:26 46.60000 27.02116 13866 ft 369 kts 12°
2026-05-06 23:26 46.62496 27.02922 13340 ft 367 kts 12°
2026-05-06 23:26 46.64986 27.03727 12848 ft 365 kts 12°
2026-05-06 23:26 46.67465 27.04528 12361 ft 363 kts 12°
2026-05-06 23:27 46.69922 27.05323 11889 ft 360 kts 12°
2026-05-06 23:27 46.72360 27.06113 11419 ft 357 kts 13°
2026-05-06 23:27 46.74698 27.07209 10940 ft 348 kts 23°
2026-05-06 23:27 46.76750 27.08909 10744 ft 338 kts 34°
2026-05-06 23:28 46.78629 27.10886 10578 ft 328 kts 35°
2026-05-06 23:28 46.80447 27.12822 10433 ft 318 kts 35°
2026-05-06 23:28 46.82217 27.14693 10281 ft 309 kts 35°
2026-05-06 23:28 46.83942 27.16502 10154 ft 300 kts 34°
2026-05-06 23:29 46.85617 27.18251 10028 ft 291 kts 34°
2026-05-06 23:29 46.87219 27.19924 9998 ft 279 kts 34°
2026-05-06 23:29 46.88791 27.21563 9544 ft 283 kts 34°
2026-05-06 23:29 46.90391 27.23229 9193 ft 283 kts 34°
2026-05-06 23:30 46.91992 27.24899 8873 ft 282 kts 34°
2026-05-06 23:30 46.93588 27.26565 8566 ft 281 kts 34°
2026-05-06 23:30 46.95174 27.28223 8271 ft 279 kts 34°
2026-05-06 23:30 46.96748 27.29868 8024 ft 276 kts 34°
2026-05-06 23:31 46.98307 27.31500 7770 ft 274 kts 34°
2026-05-06 23:31 46.99935 27.32898 7493 ft 270 kts 16°
2026-05-06 23:31 47.01775 27.33238 7269 ft 266 kts 357°
2026-05-06 23:31 47.03624 27.33098 7037 ft 266 kts 355°
2026-05-06 23:32 47.05469 27.32906 6803 ft 267 kts 355°
2026-05-06 23:32 47.07302 27.32723 6565 ft 268 kts 357°
2026-05-06 23:32 47.09167 27.32807 6314 ft 268 kts
2026-05-06 23:32 47.11033 27.33033 6061 ft 268 kts
2026-05-06 23:33 47.12887 27.33270 5806 ft 266 kts
2026-05-06 23:33 47.14732 27.33496 5552 ft 265 kts
2026-05-06 23:33 47.16570 27.33709 5290 ft 265 kts
2026-05-06 23:33 47.18415 27.33912 5057 ft 265 kts
2026-05-06 23:34 47.19633 27.34044 4892 ft 265 kts
2026-05-06 23:34 47.22063 27.34302 4572 ft 264 kts
2026-05-06 23:34 47.23888 27.34492 4319 ft 261 kts
2026-05-06 23:34 47.25652 27.34675 4266 ft 247 kts
2026-05-06 23:35 47.27324 27.34849 4144 ft 235 kts
2026-05-06 23:35 47.28916 27.35013 4025 ft 223 kts
2026-05-06 23:35 47.30463 27.35277 3682 ft 222 kts 19°
2026-05-06 23:35 47.31342 27.35956 3578 ft 213 kts 45°
2026-05-06 23:36 47.32161 27.37698 3479 ft 207 kts 73°
2026-05-06 23:36 47.32729 27.40425 3401 ft 211 kts 80°
2026-05-06 23:36 47.33101 27.42515 3315 ft 209 kts 81°
2026-05-06 23:36 47.33345 27.43868 3262 ft 202 kts 81°
2026-05-06 23:37 47.33636 27.45829 3094 ft 189 kts 97°
2026-05-06 23:37 47.33347 27.47581 3003 ft 168 kts 125°
2026-05-06 23:37 47.32540 27.48715 2953 ft 162 kts 150°
2026-05-06 23:37 47.31647 27.49783 2789 ft 163 kts 145°
2026-05-06 23:38 47.30738 27.50738 2663 ft 158 kts 152°
2026-05-06 23:38 47.29816 27.51582 2537 ft 154 kts 153°
2026-05-06 23:38 47.28910 27.52392 2449 ft 152 kts 154°
2026-05-06 23:38 47.27992 27.53208 2381 ft 155 kts 154°
2026-05-06 23:39 47.27092 27.54011 2277 ft 146 kts 154°
2026-05-06 23:39 47.26237 27.54774 2114 ft 143 kts 155°
2026-05-06 23:39 47.25398 27.55521 1984 ft 138 kts 155°
2026-05-06 23:39 47.24585 27.56246 1778 ft 134 kts 155°
2026-05-06 23:40 47.23794 27.56948 1587 ft 135 kts 155°
2026-05-06 23:40 47.23001 27.57664 1387 ft 135 kts 153°
2026-05-06 23:40 47.22169 27.58399 1224 ft 143 kts 150°
2026-05-06 23:40 47.21315 27.59167 1011 ft 145 kts 152°
2026-05-06 23:41 47.20459 27.59922 812 ft 141 kts 150°
2026-05-06 23:41 47.19622 27.60668 640 ft 142 kts 150°
2026-05-06 23:41 47.18763 27.61434 449 ft 146 kts 149°
2026-05-06 23:41 47.17932 27.62171 375 ft 123 kts 146°
2026-05-06 23:42 47.17612 27.62458 365 ft 19 kts 152°